STARLINK-3779, 52281

Orbit data source: Space-Track

STARLINK-3779, 52281 is a payload satellite owned by SpaceX/Seattle (US) in LEO that was launched on Thu, 21 Apr 2022 UTC via an FALCON 9 launch vehicle from the Air Force Eastern Test Range (AFETR). Payload-class satellites include a variety of spacecraft equipped with specific instruments for various scientific and technological missions. These include communications satellites like Starlink; space stations such as the ISS; scientific satellites like the Hubble; Earth observation satellites from companies like Planet Labs, Umbra, and HawkEye 360; GPS; miniature CubeSats for education and research; and military/defense satellites.

Loading next visibility...
Identifier
52281, 2022-041W
Orbit
LEO
Country
Flag of USUS
Related business
Manufacturer
SpaceX/Seattle
Mission
Operational Commercial Communications
Bus & Motor
STARLINK, Unknown motor
Mass
297 kg wet, ~275 kg dry
Launch date (UTC)
2022-04-21 (4 years ago)
Launch vehicle
FALCON 9
Launch site
Air Force Eastern Test Range (AFETR)
Object type
Payload
Rocket body
Debris
Shape & HBR
Box + 1 Pan, 10.1 m
Radar Cross Section
11.087 m², Large (>1 m²)

Expand to show TLE details & history
Last TLE update: 1 day ago

TLE from 1 day ago
0 STARLINK-3779
1 52281U 22041W   26129.48078991  .00001607  00000-0  11904-3 0  9995
2 52281  53.2165 196.2159 0001086  76.4936 283.6177 15.08832119223543
Epoch: 2026-05-09T11:32Z
TLE epoch observation values (Epoch: 2026-05-09T11:32:20.248Z)
Latitude
-0.00002°
Longitude
155.83391°
Altitude
540.488 km
Speed
7.593 km/s
True Right ascension
13h 04m 51s
True Declination
0° 00' 00"
Sunlit
Object was in full shadow at epoch
Visualization orbit readout
Latitude
Unknown
Longitude
Unknown
Altitude
Unknown
Speed
Unknown
Apparent Right ascension
Unknown
Apparent Declination
Unknown
Sunlit
N/A
Visualization observer readout
Local Sidereal Time
21:22:03
Azimuth
Unknown
Elevation
Unknown
Doppler factor
Unknown
Orbital elements
Apogee altitude
540.764 km
Perigee altitude
539.261 km
Semi-major axis
6,918.15 km
Eccentricity
0.00011
Inclination
53.2165°
RAAN
196.2159°
Arg. of periapsis
76.4936°
True anomaly
283.6056°
Mean anomaly
283.6177°
Eccentric anomaly
283.61165°
Mean motion
3.77188 °/min
Orbital period
95.44 mins
BSTAR
0.00011904
Loading maneuver chart data...
Computing Atmospheric mass density...
Loading historical data...
Loading historical data...
Loading historical data...
Loading historical data...
Loading historical data...
Loading historical data...
Loading historical data...

Documentation

Showing up to 5 results
|